Погода Гродно

Погода Гродно : погода сейчас, прогноз погоды и архив. Всё, что Вы хотите узнать о погоде Гродно!

Поиск расширенной информации на нашем сайте:

Другие новости

Новости СМИ2

Главная страница сайта

Новости сайта

03.07.2017

Напоминаем, что на нашем специализированном сайте Метеоцентр.Азия вы можете получить высокодетализированные автоматические прогнозы погоды по пунктам России, СНГ и мира в авиационном формате (включающие направление и скорость ветра, видимость, явления погоды, количество и форму облачности, нижнюю и верхнюю границу облачности).


Погода Гродно - сегодня

Время (UTC), дата Ветер
(°,м/с) 
Видим.   Явления Облачность Т
(°С)
Тd
(°С)
f(%) Тe
(°С)
Pmin
(гПа)
dP
(гПа)
Po
(мм)
O2
(г/м3)
Тmin Tmax R s Состояние
почвы
15 24.05.18 040 (СВ) 13000 м    8/6 1080 м средняя 
[Cu med, cong|Ac trans]
+21.8 +9 44 +22  1021.9  -1  753  280           
21 24.05.18 350 (С) 10 км    6/6 900 м 
[Sc]
+15.2 +10.3 73 +16  1022.5  0.4  754  286           
00 25.05.18 010 (С) 10 км    4/4 600 м 
[Sc]
+13.8 +9.5 75 +14  1022.5  754  287           
03 25.05.18 020 (С) 10 км    4/0 средняя 
[Ac trans]
+11.8 +9 83 +12  1022.3  -0.3  753  289           
06 25.05.18 060 (СВ) 11000 м    6/0 средняя, верхняя 
[Ac trans|Ci fib]
+15.5 +11 75 +17  1022.5  0.3  754  285  +11.6         
09 25.05.18 050 (СВ) 12000 м    8/3 1000 м средняя 
[Cu hum|Ac trans]
+19.5 +12.2 63 +24  1022.1  754  281           
12 25.05.18 100 (В) 12000 м    8/8 1080 м 
[Cu med, cong]
+23.2 +10.3 44 +25  1021.9  -0.1  753  278           
15 25.05.18 130 (ЮВ) 3{11}  10 км  гроза без осадков{ливн. осадки} [макс. диам. градин 6 мм]  8/6 1000 м кучево-дожд., средняя 
[Cb cap|Ac trans]
+21.4 +15.6 70 +31  1021.6  -0.3  753  278         
18 25.05.18 070 (В) 10 км  в посл. час гроза{ливн. осадки}  8/4 1000 м кучево-дожд., средняя 
[Cb cap|Ac trans]
+19.8 +15.8 78 +31  1021.9  0.2  753  280    +23.9     
21 25.05.18 020 (С) 10 км  {гроза}  6/0 средняя 
[Ac trans]
+17.9 +15.1 84 +28  1023.4  1.4  754  282           
00 26.05.18 060 (СВ) 10 км  {гроза}  8/0 средняя 
[Ac trans]
+16.3 +14.2 87 +24  1024.2  0.6  755  284           
03 26.05.18 090 (В) 10 км    4/0 средняя, верхняя 
[Ac trans|Ci fib]
+14.9 +12.3 84 +19  1025  0.7  755  286           
09 26.05.18 110 (В) 10 км    4/3 600 м верхняя 
[Cu hum|Ci fib]
+23.5 +13.5 53 +29  1025.6  0.3  756  278           
15 26.05.18 090 (В) 12000 м    6/4 1000 м верхняя 
[Cu hum|Ci fib]
+24.3 +9.9 40 +25  1024.1  -0.9  755  278           
18 26.05.18 090 (В) 12000 м    3/0 верхняя 
[Ci fib]
+21 +12.3 58 +25  1024.1  -0.2  755  280    +26.3       
21 26.05.18 100 (В) 10 км    4/0 верхняя 
[Ci fib]
+17.1 +11.2 68 +21  1025  0.6  755  284           
00 27.05.18 110 (В) 10 км    4/0 верхняя 
[Ci fib]
+14.3 +10 75 +16  1025.1  755  287           
03 27.05.18 100 (В) 10 км    6/0 верхняя 
[Ci fib]
+12.7 +8.1 74 +13  1025.2  755  289           
06 27.05.18 110 (В) 12000 м    6/0 верхняя 
[Ci fib]
+16.2 +9.5 64 +17  1025.5  0.5  756  286  +12.7         
09 27.05.18 110 (В) 14000 м    4/0 верхняя 
[Ci fib]
+22.4 +12 52 +26  1025  -0.2  756  279           
12 27.05.18 120 (ЮВ) 14000 м    4/3 1000 м верхняя 
[Cu hum|Ci fib]
+25.2 +10.5 40 +27  1024.4  -0.4  755  277           
15 27.05.18 тихо ()   14000 м    3/3 1000 м 
[Cu hum]
+25.6 +11.3 41 +28  1023.5  -0.8  755  276           
18 27.05.18 080 (В) 14000 м    3/0 верхняя 
[Ci fib]
+24.1 +12.4 48 +28  1023  -0.6  754  277    +25.8       
21 27.05.18 090 (В) 10 км    4/0 верхняя 
[Ci fib]
+19.8 +10.2 54 +22  1024  0.8  755  282           
00 28.05.18 тихо ()   10 км    6/0 верхняя 
[Ci fib]
+17.3 +11.4 68 +20  1025.1  0.8  756  284           
Время (UTC), дата Ветер
(°,м/с) 
Видим.   Явления Облачность Т
(°С)
Тd
(°С)
f(%) Тe
(°С)
Pmin
(гПа)
dP
(гПа)
Po
(мм)
O2
(г/м3)
Тmin Tmax R s Состояние
почвы

Для получения пояснительной информации подведите курсор к названию столбца.

ПОГОДА Гродно - архив

Всё, что Вы хотите узнать о погоде Гродно - удобно и подробно!

Выберите нужную дату (начиная с 1 января 2015* года) и нажмите кнопку "Найти".
Будут отображены архивные сводки погоды по пункту Гродно, начиная с указанной даты.


Отображать данные в формате CSV (для использования в таблицах Excel)


Внимание! Наш архив погоды предназначен исключительно для личного некоммерческого использования в познавательных целях. Если Вам необходимы официальные справки о состоянии погоды (для производственных, юридических, коммерческих и т.п. целей), обращайтесь в органы Росгидромета.

*Примечание: данная дата относится к архиву по метеостанциям СССР (Россия, СНГ, Балтия).
Архив по метеостанциям Зарубежной Европы и Азии (кроме Китая) хранится 10 дней, по другим регионам земного шара (Китай, Африка, Америка, Австралия, Океания) - 1 день.

Гродно - район местоположения метеостанции


Название, широта, долгота, высота метеостанции:
Гродно 53.6°ш. 24.1°д. 134 м над ур. моря [Беларусь]

Дополнительная информация

В oтличие oт бoльшинства пoгoдных сайтoв мы публикуем пoдрoбную метеoинфoрмацию в детальнoм прoфессиoнальнoм фoрмате.

Характеристики температуры и влажнoсти вoздуха измеряются на высoте 2 м в тени вдали oт зданий и деревьев.
Скoрoсть ветра измеряется на высoте 10 м (на урoвне рoста челoвека скoрoсть ветра ниже в 1.5-2 раза). Если метеoстанция нахoдится в гoрoде или в лесу, тo скoрoсть ветра занижена на 2-4 м/с пo сравнению с oткрытым местoм. Скoрoсть ветра над акватoриями крупных рек и oзёр, а также на вершинах хoлмoв на 2-5 м/с выше, чем в oбычных услoвиях.
Атмoсфернoе давление в разных тoчках местнoсти мoжет значительнo oтличаться oт давления на метеoстанции, в зависимoсти oт услoвий рельефа (при пoдъёме на 10 м давление пoнижается примернo на 1 мм рт.ст.).